Location: Cad�
(44.7333°N, 10.5333°E)
Time: 01:32:49
(UTC+00:00)

Daily predictions for brighter satellites

Satellite Brightness Start Highest point End
(mag) Time Altitude Azimuth Time Altitude Azimuth Time Altitude Azimuth
USA 267 4.1 01:44:21 10° NE 01:48:35 44° ENE 01:48:35 44° ENE
CENTAUR R/B 4.3 01:56:05 10° NNW 02:03:25 39° NE 02:11:30 10° ESE
ADEOS II 4.2 02:16:07 10° N 02:17:29 18° N 02:17:29 18° N
IDEFIX/ARIANE 42P 4.3 02:17:23 10° NNE 02:19:42 27° NNE 02:19:42 27° NNE
USA 234 3.4 02:18:23 10° ESE 02:24:09 68° E 02:24:09 68° E
CZ-4C R/B 4.3 02:25:01 14° ESE 02:25:58 15° ESE 02:28:50 10° ENE
Cosmos 1553 Rocket 4.3 02:32:42 61° NNE 02:32:42 61° NNE 02:37:46 10° N
Lacrosse 5 3.0 02:40:09 41° ENE 02:40:09 41° ENE 02:43:51 10° ESE
Cosmos 2082 Rocket 4.2 02:42:36 17° NNW 02:42:36 17° NNW 02:44:42 10° N
MSX 4.3 02:39:47 10° NNE 02:44:11 54° N 02:44:11 54° N
Cosmos 2333 Rocket 3.6 02:40:20 10° NNW 02:45:42 38° NE 02:51:02 10° ESE
Cosmos 2221 4.4 02:53:27 24° N 02:53:27 24° N 02:55:15 10° N
Cosmos 2219 Rocket 3.4 02:55:20 10° NNW 03:00:42 41° ENE 03:06:03 10° SE
CZ-2C R/B 2.7 02:57:33 10° NNE 03:02:02 58° E 03:02:02 58° E
Milstar 3 Cent rocket 4.3 03:04:55 11° SSE 03:04:55 11° SSE 03:05:23 10° SSE
Cosmos 1606 3.9 03:12:56 42° NE 03:12:56 42° NE 03:15:46 10° NNE
Sich 1 4.4 03:09:06 10° N 03:13:16 39° ENE 03:17:23 10° SE
USA 238 DEB 3.8 03:07:42 10° NW 03:15:00 85° NE 03:22:36 10° SE
USA 238 3.8 03:07:49 10° NW 03:15:06 84° NE 03:22:42 10° SE
COSMOS 2428 3.7 03:11:35 10° NNW 03:17:06 47° ENE 03:22:36 10° SE
ATLAS 5 CENTAUR R/B 3.0 03:19:18 25° SE 03:20:12 28° ESE 03:23:51 10° ENE
Cosmos 909 Rocket 4.5 03:18:01 28° S 03:21:26 59° ESE 03:27:34 10° NE
S3M 3.9 03:21:13 60° W 03:21:33 60° WNW 03:27:42 10° N
ARIANE 5 R/B 3.7 03:20:26 10° N 03:23:22 28° NNW 03:23:22 28° NNW
Cosmos 1745 Rocket 4.0 03:20:11 10° NNW 03:26:18 53° W 03:26:32 53° W
CZ-4C R/B 3.9 03:30:56 43° NNE 03:30:56 43° NNE 03:33:35 10° N
USA 267 3.9 03:27:33 10° NE 03:33:39 43° NNW 03:35:57 32° WNW
FENGYUN 3A 3.9 03:29:33 10° NNE 03:35:00 69° ESE 03:40:06 12° S
Cosmos 2322 3.6 03:32:05 10° NNW 03:37:48 86° WSW 03:43:27 10° SSE
Cosmos 1709 Rocket 3.9 03:31:46 10° NNW 03:38:08 74° W 03:44:29 10° S
H-2A R/B 2.8 03:37:08 10° SSE 03:41:14 52° ENE 03:45:16 10° N
NOSS 3-2 (A) 4.1 03:36:11 10° NW 03:43:42 61° WSW 03:52:07 10° SSE
COSMOS 2487 3.6 03:50:12 31° NNW 03:50:12 31° NNW 03:52:21 10° N
Cosmos 2344 3.7 03:46:42 34° WSW 03:49:52 56° NW 03:57:48 10° NE
Cosmos 1633 Rocket 4.0 03:47:09 10° N 03:51:27 49° ENE 03:55:41 10° SSE
Geosat 4.0 03:49:31 10° NNE 03:54:35 85° ESE 03:58:04 21° SSW
CENTAUR R/B 3.2 03:46:40 10° NW 03:54:51 74° WSW 04:03:44 10° SSE
Cosmos 2251 Rocket 3.7 03:53:53 39° WSW 03:55:29 52° WNW 04:00:45 10° NNE
Cosmos 614 Rocket 3.9 03:54:14 28° SSW 03:56:59 73° WNW 04:02:13 10° NNE
Meteor 1-20 Rocket 4.3 03:53:46 10° N 03:59:31 87° E 04:05:19 10° S
Cosmos 2360 Rocket 3.9 04:04:24 15° SSW 04:04:24 15° SSW 04:05:36 10° SSW
Cosmos 1933 3.2 03:58:06 18° S 04:01:02 86° W 04:05:07 10° N
IDEFIX/ARIANE 42P 4.5 03:58:52 10° NNW 04:00:31 13° NW 04:00:31 13° NW
ISS -3.2 04:00:41 36° NNW 04:01:41 53° NNE 04:05:00 10° ESE
H-2A R/B 4.3 03:52:49 23° WSW 04:02:52 39° SSW 04:08:26 10° SE
ALOS 2.2 03:58:47 10° N 04:03:26 68° WNW 04:07:02 17° SSW
Meteor 2-17 Rocket 4.4 03:57:34 10° NNW 04:03:28 55° W 04:09:20 10° SSW
CZ-2C R/B 4.5 04:02:29 10° NNW 04:04:14 19° NW 04:04:14 19° NW
USA 234 3.8 04:02:23 10° SSE 04:08:14 35° SW 04:11:34 22° W
Cosmos 2237 Rocket 3.3 04:03:02 10° NNW 04:08:29 45° ENE 04:13:53 10° SE
Cosmos 2333 4.5 04:03:17 10° NW 04:08:44 44° WSW 04:14:10 10° S
Meteor 1-31 Rocket 3.2 04:07:23 10° NNE 04:11:14 61° E 04:15:00 10° S
Cosmos 407 Rocket 3.4 04:06:51 10° SSW 04:12:01 87° ESE 04:17:12 10° NNE
Iridium 51 4.0 04:08:19 10° N 04:12:05 89° E 04:15:36 10° S
CZ-4C R/B 2.0 04:10:13 23° SW 04:13:21 79° NW 04:19:17 10° NE
PSLV R/B 4.2 04:11:59 10° N 04:15:58 34° WNW 04:17:21 27° WSW
USA 276 2.9 04:16:02 33° NW 04:16:53 41° NNW 04:19:57 10° ENE
NOSS 3-4 (A) 3.3 04:16:30 15° SW 04:21:23 81° NW 04:27:42 10° NE
NOSS 3-4 (C) 3.3 04:16:34 15° SW 04:21:30 82° NW 04:27:49 10° NE
Lacrosse 5 2.4 04:19:24 23° W 04:21:48 36° SW 04:26:22 10° SSE
Cosmos 1190 Rocket 4.1 04:18:22 10° SSW 04:23:41 85° ESE 04:29:01 10° NNE
Cosmos 1328 Rocket 3.5 04:19:42 10° S 04:24:00 87° E 04:28:20 10° N
Cosmos 192 4.3 04:19:40 10° NNW 04:24:33 59° WSW 04:29:24 10° S
NOSS 3-2 (C) 4.2 04:18:15 10° NW 04:25:43 54° WSW 04:34:01 10° SSE
Cosmos 1515 Rocket 4.5 04:22:00 10° S 04:26:12 51° E 04:30:28 10° NNE
Cosmos 2227 Rocket 3.8 04:21:32 10° S 04:26:40 37° ESE 04:31:49 10° NE
GPS 2-04 Rocket1 4.3 04:26:32 16° SW 04:28:02 19° S 04:30:48 10° SE
SJ-12 3.9 04:25:43 10° NNE 04:29:48 86° E 04:33:51 10° SSW
Cosmos 2333 Rocket 2.7 04:24:42 10° NW 04:29:57 37° WSW 04:35:10 10° S
SL-16 R/B 4.3 04:26:28 10° N 04:31:19 28° NE 04:36:07 10° ESE
Cosmos 1484 Rocket 3.4 04:29:35 10° N 04:32:57 33° WNW 04:35:27 16° SW
Cosmos 1437 Rocket 2.8 04:29:39 10° SSW 04:33:41 65° WNW 04:37:41 10° N
Landsat 5 4.4 04:32:44 10° SSW 04:35:45 22° W 04:38:51 10° NW
Cosmos 1470 Rocket 3.6 04:31:51 10° N 04:36:13 85° E 04:40:32 10° S
ATLAS 2AS CENTAUR R/B 3.1 04:28:40 10° SSW 04:36:36 87° SE 04:44:28 10° NE
CZ-4B R/B 3.8 04:32:21 10° NNE 04:36:51 60° E 04:41:17 10° S
CZ-4B R/B 1.0 04:36:44 10° SSE 04:39:48 86° WSW 04:42:53 10° NNW
CZ-2C R/B 3.8 04:36:54 10° NNW 04:39:58 17° WNW 04:41:25 15° W
COSMO-SKYMED 1 2.5 04:36:25 10° S 04:40:44 74° W 04:45:05 10° NNW
Cosmos 2297 Rocket 2.8 04:36:10 10° S 04:41:43 61° ESE 04:47:17 10° NNE
deb Chang Zheng 4 4.3 04:38:14 10° NNE 04:42:29 58° ESE 04:46:44 10° S
Envisat 4.0 04:37:44 10° NNE 04:42:41 50° E 04:47:36 10° S
Cosmos 1782 2.9 04:39:46 10° SSW 04:43:37 53° W 04:47:31 10° N
Cosmos 2219 Rocket 2.8 04:39:32 10° NW 04:44:31 32° WSW 04:49:30 10° SSW
NOSS 7 (H) 4.2 04:42:13 10° SW 04:45:47 88° SE 04:48:45 10° NE
Cosmos 1140 Rocket 3.6 04:44:25 10° SW 04:49:30 52° WNW 04:54:35 10° NNE
Sich 1 4.3 04:47:28 10° NW 04:50:38 20° W 04:53:47 10° SW
Meteor 1-26 Rocket 4.4 04:46:51 10° SSW 04:52:26 53° WNW 04:58:14 10° N
Cosmos 1500 3.1 04:49:26 10° NNW 04:53:13 76° W 04:57:02 10° S
Cosmos 1980 3.7 04:47:47 10° NNW 04:53:28 81° WSW 04:59:08 10° SSE
ERS-2 3.1 04:50:39 10° SSE 04:54:10 52° ENE 04:57:43 10° N
Cosmos 1933 Rocket 3.6 04:52:09 10° N 04:56:38 88° W 05:01:06 10° S
Cosmos 1666 Rocket 4.5 04:54:16 10° NNW 04:57:55 26° W 05:01:35 10° SW
Cosmos 2074 Rocket 4.2 04:52:58 10° NNW 04:58:51 46° W 05:04:42 10° SSW
SeaSat 1 2.6 04:55:09 10° S 04:59:57 52° WSW 05:04:46 10° NW
MOS 1 Rocket 3.5 04:55:48 10° S 04:59:58 42° W 05:04:23 10° NNW
Cosmos 2228 Rocket 4.1 04:56:03 10° S 05:00:30 54° E 05:04:58 10° NNE
COSMOS 2428 3.5 04:56:19 10° NW 05:01:08 29° WSW 05:05:56 10° SSW
BREEZE M DEB (TANK) 2.9 04:59:43 10° WNW 05:02:43 87° NNE 05:12:03 10° ESE
ATLAS 5 CENTAUR R/B 2.3 05:00:59 10° WSW 05:04:39 33° NW 05:08:47 10° NNE
BREEZE-M DEB (TANK) 3.3 05:01:06 10° WNW 05:04:45 33° N 05:06:54 10° ENE
YAOGAN 6 2.6 05:02:18 10° NNE 05:05:50 84° ESE 05:09:17 10° S
Cosmos 2154 Rocket 4.0 05:00:16 10° NNW 05:06:24 62° W 05:12:33 10° S
ADEOS 4.1 05:04:27 10° N 05:09:16 38° WNW 05:14:02 10° SW
ATLAS 3B R/B 3.0 05:02:48 10° NW 05:09:50 83° NE 05:17:10 10° SE
USA 267 4.5 05:10:11 10° NE 05:15:42 30° N 05:21:12 10° WNW
